| time (UTC) | temp C | wind direction | speed KPH | gust KPH | rain 1hr cm | rain 24hr cm | rain mn cm | humidity % | barometer mb |
| 20260504050346 | 13 | 244 | 1.6 | 4.8 | 0.00 | 0.20 | 0.05 | 68 | 1006.0 |
| 20260504045845 | 13 | 244 | 3.2 | 6.4 | 0.00 | 0.20 | 0.05 | 68 | 1006.0 |
| 20260504045345 | 13 | 256 | 3.2 | 6.4 | 0.00 | 0.20 | 0.05 | 68 | 1006.0 |
| 20260504044845 | 13 | 287 | 3.2 | 4.8 | 0.00 | 0.20 | 0.05 | 68 | 1006.0 |
| 20260504044341 | 13 | 223 | 3.2 | 4.8 | 0.00 | 0.20 | 0.05 | 68 | 1005.9 |
| 20260504043841 | 13 | 194 | 3.2 | 4.8 | 0.00 | 0.20 | 0.05 | 68 | 1006.0 |
| 20260504043342 | 13 | 178 | 1.6 | 4.8 | 0.00 | 0.20 | 0.05 | 68 | 1006.0 |
| 20260504042842 | 13 | 177 | 1.6 | 4.8 | 0.00 | 0.20 | 0.05 | 68 | 1005.9 |
| 20260504042605 | 13 | 177 | 1.6 | 6.4 | 0.00 | 0.20 | 0.05 | 68 | 1006.0 |
| 20260504041841 | 13 | 177 | 1.6 | 6.4 | 0.00 | 0.20 | 0.05 | 68 | 1006.0 |
| 20260504041341 | 13 | 180 | 3.2 | 8.0 | 0.03 | 0.20 | 0.05 | 68 | 1006.1 |
| 20260504040841 | 13 | 181 | 4.8 | 8.0 | 0.03 | 0.20 | 0.05 | 68 | 1006.1 |
| 20260504040605 | 13 | 180 | 4.8 | 11.3 | 0.03 | 0.20 | 0.05 | 68 | 1006.1 |
| 20260504040100 | 13 | 213 | 4.8 | 11.3 | 0.03 | 0.20 | 0.05 | 68 | 1006.1 |
| 20260504035342 | 13 | 202 | 3.2 | 8.0 | 0.03 | 0.20 | 0.05 | 68 | 1006.2 |
| 20260504034842 | 13 | 181 | 3.2 | 8.0 | 0.03 | 0.20 | 0.05 | 68 | 1006.2 |
| 20260504034342 | 13 | 189 | 3.2 | 8.0 | 0.03 | 0.20 | 0.05 | 68 | 1006.2 |
| 20260504034106 | 13 | 218 | 3.2 | 8.0 | 0.03 | 0.20 | 0.05 | 68 | 1006.2 |
| 20260504033342 | 13 | 224 | 4.8 | 11.3 | 0.03 | 0.20 | 0.05 | 68 | 1006.1 |
| 20260504032841 | 13 | 217 | 4.8 | 11.3 | 0.03 | 0.20 | 0.05 | 68 | 1006.2 |
| 20260504032341 | 13 | 218 | 4.8 | 11.3 | 0.03 | 0.20 | 0.05 | 68 | 1006.2 |
| 20260504031841 | 13 | 229 | 4.8 | 11.3 | 0.03 | 0.20 | 0.05 | 68 | 1006.3 |
| 20260504031354 | 13 | 224 | 4.8 | 14.5 | 0.00 | 0.18 | 0.03 | 68 | 1006.4 |
| 20260504030842 | 13 | 230 | 6.4 | 14.5 | 0.00 | 0.18 | 0.03 | 68 | 1006.4 |
| 20260504030341 | 13 | 264 | 6.4 | 14.5 | 0.00 | 0.18 | 0.03 | 68 | 1006.4 |
| 20260504025842 | 13 | 278 | 6.4 | 14.5 | 0.00 | 0.18 | 0.03 | 68 | 1006.4 |
| 20260504025341 | 13 | 232 | 6.4 | 12.9 | 0.00 | 0.18 | 0.03 | 68 | 1006.3 |
| 20260504024825 | 13 | 203 | 4.8 | 12.9 | 0.00 | 0.18 | 0.03 | 68 | 1006.3 |
| 20260504024549 | 13 | 246 | 4.8 | 12.9 | 0.00 | 0.18 | 0.03 | 68 | 1006.4 |
| 20260504023826 | 13 | 257 | 4.8 | 11.3 | 0.00 | 0.18 | 0.03 | 68 | 1006.4 |
| 20260504023542 | 13 | 244 | 3.2 | 6.4 | 0.00 | 0.18 | 0.03 | 68 | 1006.4 |
| 20260504022833 | 13 | 200 | 3.2 | 8.0 | 0.00 | 0.18 | 0.03 | 68 | 1006.5 |
| 20260504021817 | 13 | 201 | 3.2 | 6.4 | 0.00 | 0.18 | 0.03 | 68 | 1006.4 |
| 20260504021317 | 13 | 217 | 3.2 | 6.4 | 0.00 | 0.18 | 0.03 | 68 | 1006.4 |
| 20260504020817 | 13 | 216 | 3.2 | 6.4 | 0.00 | 0.18 | 0.03 | 68 | 1006.3 |
| 20260504020316 | 13 | 216 | 3.2 | 6.4 | 0.00 | 0.18 | 0.03 | 68 | 1006.3 |
| 20260504015816 | 13 | 221 | 3.2 | 4.8 | 0.00 | 0.18 | 0.03 | 68 | 1006.3 |
| 20260504015317 | 13 | 174 | 3.2 | 4.8 | 0.00 | 0.18 | 0.03 | 68 | 1006.3 |
| 20260504014817 | 13 | 222 | 3.2 | 4.8 | 0.00 | 0.18 | 0.03 | 68 | 1006.3 |
| 20260504014316 | 13 | 233 | 1.6 | 4.8 | 0.00 | 0.18 | 0.03 | 68 | 1006.4 |
| 20260504013816 | 13 | 233 | 3.2 | 4.8 | 0.00 | 0.18 | 0.03 | 68 | 1006.4 |
| 20260504013316 | 13 | 234 | 3.2 | 6.4 | 0.00 | 0.18 | 0.03 | 68 | 1006.4 |
| 20260504013049 | 13 | 236 | 3.2 | 6.4 | 0.00 | 0.18 | 0.03 | 68 | 1006.4 |
| 20260504012316 | 13 | 243 | 3.2 | 6.4 | 0.00 | 0.18 | 0.03 | 68 | 1006.3 |
| 20260504011830 | 13 | 194 | 3.2 | 6.4 | 0.00 | 0.18 | 0.03 | 68 | 1006.4 |
| 20260504011316 | 13 | 196 | 3.2 | 6.4 | 0.00 | 0.18 | 0.03 | 68 | 1006.5 |
| 20260504010817 | 13 | 122 | 1.6 | 6.4 | 0.00 | 0.18 | 0.03 | 68 | 1006.5 |
| 20260504010540 | 13 | 122 | 1.6 | 6.4 | 0.00 | 0.18 | 0.03 | 68 | 1006.4 |
| 20260504005816 | 13 | 119 | 1.6 | 8.0 | 0.00 | 0.18 | 0.03 | 68 | 1006.3 |
| 20260504005316 | 14 | 118 | 3.2 | 8.0 | 0.00 | 0.18 | 0.03 | 68 | 1006.3 |
| 20260504004816 | 14 | 118 | 4.8 | 9.7 | 0.00 | 0.18 | 0.03 | 68 | 1006.2 |
| 20260504004316 | 14 | 136 | 3.2 | 9.7 | 0.00 | 0.18 | 0.03 | 67 | 1006.2 |
| 20260504003817 | 14 | 108 | 3.2 | 6.4 | 0.00 | 0.18 | 0.03 | 67 | 1006.1 |
| 20260504003316 | 14 | 199 | 1.6 | 8.0 | 0.00 | 0.18 | 0.03 | 67 | 1006.1 |
| 20260504002816 | 14 | 219 | 3.2 | 8.0 | 0.03 | 0.18 | 0.03 | 67 | 1006.1 |
| 20260504002317 | 14 | 221 | 6.4 | 17.7 | 0.03 | 0.18 | 0.03 | 67 | 1006.0 |
| 20260504001816 | 14 | 237 | 8.0 | 17.7 | 0.03 | 0.18 | 0.03 | 67 | 1006.0 |
| 20260504001317 | 14 | 313 | 8.0 | 22.5 | 0.03 | 0.18 | 0.03 | 67 | 1005.9 |
| 20260504000819 | 14 | 287 | 8.0 | 22.5 | 0.03 | 0.18 | 0.03 | 68 | 1005.8 |
| 20260504000316 | 14 | 286 | 8.0 | 25.7 | 0.03 | 0.18 | 0.03 | 67 | 1005.9 |
| 20260503235819 | 14 | 267 | 6.4 | 25.7 | 0.03 | 0.18 | 0.03 | 68 | 1006.0 |
| 20260503234810 | 14 | 267 | 8.0 | 24.1 | 0.03 | 0.18 | 0.03 | 68 | 1006.1 |
| 20260503234529 | 14 | 251 | 8.0 | 25.7 | 0.03 | 0.18 | 0.03 | 68 | 1006.1 |
| 20260503233810 | 14 | 260 | 9.7 | 25.7 | 0.03 | 0.18 | 0.03 | 68 | 1005.9 |
| 20260503233308 | 14 | 294 | 9.7 | 25.7 | 0.03 | 0.18 | 0.03 | 68 | 1005.9 |
| 20260503232810 | 14 | 289 | 11.3 | 25.7 | 0.00 | 0.15 | 0.00 | 68 | 1006.2 |
| 20260503232308 | 15 | 289 | 9.7 | 24.1 | 0.00 | 0.15 | 0.00 | 68 | 1006.2 |
| 20260503232034 | 15 | 220 | 9.7 | 27.4 | 0.00 | 0.15 | 0.00 | 68 | 1006.1 |
| 20260503231307 | 15 | 204 | 12.9 | 27.4 | 0.00 | 0.15 | 0.00 | 69 | 1006.2 |
| 20260503230810 | 15 | 228 | 12.9 | 29.0 | 0.00 | 0.15 | 0.00 | 69 | 1006.3 |
| 20260503230304 | 15 | 213 | 9.7 | 29.0 | 0.00 | 0.15 | 0.00 | 69 | 1006.1 |
| 20260503225800 | 15 | 292 | 4.8 | 22.5 | 0.00 | 0.15 | 0.00 | 69 | 1006.0 |
| 20260503225257 | 15 | 215 | 1.6 | 4.8 | 0.00 | 0.15 | 0.00 | 69 | 1006.0 |
| 20260503224800 | 15 | 202 | 1.6 | 4.8 | 0.00 | 0.15 | 0.00 | 69 | 1005.9 |
| 20260503224258 | 15 | 207 | 1.6 | 4.8 | 0.00 | 0.15 | 0.00 | 69 | 1005.8 |
| 20260503223801 | 15 | 204 | 1.6 | 4.8 | 0.00 | 0.15 | 0.00 | 69 | 1005.7 |
| 20260503223524 | 15 | 197 | 0.0 | 4.8 | 0.00 | 0.15 | 0.00 | 69 | 1005.7 |
| 20260503222800 | 15 | 197 | 1.6 | 3.2 | 0.00 | 0.15 | 0.00 | 69 | 1005.5 |
| 20260503221801 | 15 | 197 | 1.6 | 4.8 | 0.00 | 0.15 | 0.00 | 69 | 1005.7 |
| 20260503221258 | 15 | 197 | 1.6 | 4.8 | 0.00 | 0.15 | 0.00 | 69 | 1005.7 |
| 20260503220801 | 15 | 196 | 1.6 | 4.8 | 0.00 | 0.15 | 0.00 | 69 | 1005.8 |
| 20260503215801 | 15 | 197 | 3.2 | 4.8 | 0.00 | 0.15 | 0.15 | 69 | 1005.7 |
| 20260503215258 | 15 | 197 | 1.6 | 4.8 | 0.00 | 0.15 | 0.15 | 69 | 1005.7 |
| 20260503214801 | 15 | 196 | 1.6 | 3.2 | 0.00 | 0.15 | 0.15 | 69 | 1005.7 |
| 20260503214257 | 15 | 196 | 1.6 | 4.8 | 0.00 | 0.15 | 0.15 | 69 | 1005.7 |
| 20260503213800 | 15 | 196 | 3.2 | 4.8 | 0.00 | 0.15 | 0.15 | 69 | 1005.8 |
| 20260503213256 | 15 | 196 | 3.2 | 4.8 | 0.00 | 0.15 | 0.15 | 69 | 1005.7 |
| 20260503213033 | 15 | 190 | 3.2 | 4.8 | 0.00 | 0.15 | 0.15 | 69 | 1005.7 |
| 20260503212254 | 15 | 186 | 3.2 | 4.8 | 0.00 | 0.15 | 0.15 | 69 | 1005.7 |
| 20260503211758 | 15 | 141 | 1.6 | 4.8 | 0.00 | 0.15 | 0.15 | 69 | 1005.7 |
| 20260503211255 | 15 | 139 | 0.0 | 0.0 | 0.00 | 0.15 | 0.15 | 69 | 1005.7 |
| 20260503210521 | 16 | 139 | 0.0 | 0.0 | 0.00 | 0.15 | 0.15 | 69 | 1005.6 |
| 20260503210027 | 16 | 139 | 0.0 | 0.0 | 0.00 | 0.15 | 0.15 | 69 | 1005.8 |
| 20260503205255 | 16 | 139 | 0.0 | 3.2 | 0.00 | 0.15 | 0.15 | 69 | 1005.8 |
| 20260503204758 | 16 | 139 | 0.0 | 3.2 | 0.00 | 0.15 | 0.15 | 69 | 1005.8 |
| 20260503204255 | 16 | 139 | 1.6 | 4.8 | 0.00 | 0.15 | 0.15 | 69 | 1005.8 |
| 20260503204033 | 16 | 139 | 1.6 | 4.8 | 0.00 | 0.15 | 0.15 | 69 | 1005.8 |
| 20260503203255 | 16 | 138 | 1.6 | 3.2 | 0.00 | 0.15 | 0.15 | 69 | 1005.8 |
| 20260503202757 | 16 | 138 | 1.6 | 3.2 | 0.03 | 0.15 | 0.15 | 69 | 1005.8 |
| 20260503202514 | 16 | 138 | 3.2 | 6.4 | 0.03 | 0.15 | 0.15 | 69 | 1005.8 |
| 20260503202030 | 16 | 138 | 3.2 | 6.4 | 0.03 | 0.15 | 0.15 | 70 | 1005.8 |
| 20260503201255 | 16 | 73 | 1.6 | 4.8 | 0.03 | 0.15 | 0.15 | 71 | 1005.7 |
| 20260503200757 | 16 | 73 | 1.6 | 4.8 | 0.03 | 0.15 | 0.15 | 71 | 1005.7 |
| 20260503200033 | 16 | 71 | 0.0 | 3.2 | 0.05 | 0.15 | 0.15 | 71 | 1005.5 |
| 20260503195255 | 16 | 71 | 1.6 | 4.8 | 0.08 | 0.18 | 0.15 | 71 | 1005.4 |
| 20260503194758 | 16 | 71 | 1.6 | 4.8 | 0.10 | 0.18 | 0.15 | 71 | 1005.4 |
| 20260503194255 | 16 | 71 | 1.6 | 3.2 | 0.10 | 0.18 | 0.15 | 71 | 1005.5 |
| 20260503193758 | 16 | 71 | 1.6 | 4.8 | 0.10 | 0.18 | 0.15 | 71 | 1005.2 |
| 20260503193254 | 16 | 69 | 1.6 | 4.8 | 0.10 | 0.18 | 0.15 | 71 | 1005.3 |
| 20260503192757 | 16 | 69 | 3.2 | 6.4 | 0.08 | 0.15 | 0.15 | 71 | 1005.2 |
| 20260503192255 | 16 | 69 | 3.2 | 6.4 | 0.08 | 0.15 | 0.15 | 71 | 1005.2 |
| 20260503191757 | 17 | 68 | 1.6 | 11.3 | 0.08 | 0.15 | 0.15 | 71 | 1005.2 |
| 20260503191237 | 17 | 291 | 1.6 | 11.3 | 0.08 | 0.15 | 0.15 | 71 | 1005.0 |
| 20260503191002 | 17 | 295 | 1.6 | 12.9 | 0.08 | 0.15 | 0.15 | 71 | 1004.9 |
| 20260503190237 | 17 | 328 | 1.6 | 12.9 | 0.05 | 0.15 | 0.13 | 71 | 1004.9 |
| 20260503190004 | 17 | 288 | 0.0 | 9.7 | 0.05 | 0.13 | 0.10 | 71 | 1004.8 |
| 20260503185453 | 17 | 288 | 1.6 | 11.3 | 0.05 | 0.10 | 0.08 | 71 | 1004.8 |
| 20260503184728 | 17 | 292 | 3.2 | 11.3 | 0.03 | 0.08 | 0.05 | 70 | 1004.7 |
| 20260503184228 | 17 | 265 | 1.6 | 4.8 | 0.03 | 0.08 | 0.05 | 71 | 1004.6 |
| 20260503183728 | 17 | 266 | 1.6 | 4.8 | 0.03 | 0.08 | 0.05 | 70 | 1010.9 |
| 20260503183228 | 17 | 263 | 0.0 | 3.2 | 0.03 | 0.08 | 0.05 | 70 | 1004.4 |
| 20260503182729 | 17 | 263 | 0.0 | 3.2 | 0.03 | 0.08 | 0.05 | 70 | 1004.4 |
| 20260503182226 | 17 | 263 | 0.0 | 3.2 | 0.03 | 0.08 | 0.05 | 70 | 1004.4 |
| 20260503181712 | 17 | 262 | 0.0 | 1.6 | 0.03 | 0.08 | 0.05 | 70 | 1010.7 |
| 20260503181212 | 18 | 261 | 0.0 | 4.8 | 0.03 | 0.08 | 0.05 | 70 | 1004.3 |
| 20260503180712 | 18 | 261 | 0.0 | 4.8 | 0.03 | 0.08 | 0.05 | 70 | 1004.2 |
| 20260503180433 | 18 | 261 | 1.6 | 6.4 | 0.03 | 0.08 | 0.05 | 69 | 1004.2 |
| 20260503175929 | 18 | 261 | 3.2 | 6.4 | 0.00 | 0.05 | 0.05 | 69 | 1004.2 |
| 20260503175212 | 18 | 267 | 3.2 | 6.4 | 0.00 | 0.05 | 0.05 | 69 | 1004.2 |
| 20260503174712 | 18 | 277 | 1.6 | 6.4 | 0.00 | 0.05 | 0.05 | 68 | 1004.2 |
| 20260503174430 | 18 | 5 | 0.0 | 0.0 | 0.00 | 0.05 | 0.05 | 68 | 1004.0 |
| 20260503173656 | 18 | 5 | 0.0 | 3.2 | 0.00 | 0.05 | 0.05 | 68 | 1003.9 |
| 20260503173156 | 18 | 5 | 0.0 | 3.2 | 0.00 | 0.05 | 0.05 | 68 | 1004.1 |
| 20260503172656 | 18 | 5 | 1.6 | 6.4 | 0.00 | 0.05 | 0.05 | 68 | 1004.1 |
| 20260503172157 | 18 | 5 | 1.6 | 6.4 | 0.00 | 0.05 | 0.05 | 67 | 1004.1 |
| 20260503171656 | 18 | 5 | 1.6 | 6.4 | 0.00 | 0.05 | 0.05 | 68 | 1004.1 |
| 20260503171156 | 18 | 9 | 1.6 | 6.4 | 0.00 | 0.05 | 0.05 | 68 | 1004.1 |
| 20260503170657 | 19 | 13 | 1.6 | 6.4 | 0.00 | 0.08 | 0.05 | 67 | 1004.1 |
| 20260503170157 | 19 | 13 | 1.6 | 6.4 | 0.00 | 0.08 | 0.05 | 67 | 1004.1 |
| 20260503160146 | 19 | 96 | 3.2 | 9.7 | 0.00 | 0.15 | 0.05 | 66 | 1004.1 |
| 20260503150637 | 17 | 34 | 1.6 | 4.8 | 0.00 | 0.15 | 0.05 | 67 | 1005.1 |
| 20260503150406 | 17 | 24 | 0.0 | 4.8 | 0.00 | 0.15 | 0.05 | 66 | 1005.3 |
| 20260503140111 | 16 | 151 | 4.8 | 9.7 | 0.05 | 0.15 | 0.05 | 70 | 1006.2 |
| 20260503131049 | 17 | 314 | 14.5 | 35.4 | 0.00 | 0.10 | 0.00 | 69 | 1006.5 |
| 20260503130549 | 18 | 290 | 12.9 | 27.4 | 0.00 | 0.10 | 0.00 | 69 | 1006.5 |
| 20260503130105 | 20 | 302 | 12.9 | 27.4 | 0.00 | 0.10 | 0.00 | 68 | 1006.4 |
| 20260503110539 | 21 | 103 | 12.9 | 22.5 | 0.00 | 0.10 | 0.00 | 71 | 1006.2 |
| 20260503090236 | 18 | 17 | 1.6 | 6.4 | 0.00 | 0.10 | 0.00 | 67 | 1006.7 |
| 20260503081017 | 16 | 327 | 0.0 | 3.2 | 0.00 | 0.10 | 0.00 | 69 | 1006.8 |
| 20260503080531 | 16 | 327 | 0.0 | 3.2 | 0.00 | 0.10 | 0.00 | 69 | 1006.8 |